Regional Weather Roundup
Issued by NWS Nashville, TN

Home | Current Version | Previous Version | Text Only | Print | Product List | Glossary On
Versions: 1 2 3 4 5 6 7 8 9 10 11 12 13 14 15 16 17 18 19 20 21 22 23 24 25 26 27 28
000
ASUS44 KOHX 171210
RWROHX
MIDDLE TENNESSEE HOURLY WEATHER ROUNDUP
NATIONAL WEATHER SERVICE NASHVILLE TN
600 AM CST SUN DEC 17 2017

NOTE: "FAIR" INDICATES FEW OR NO CLOUDS BELOW 12,000 FEET WITH
NO SIGNIFICANT WEATHER AND/OR OBSTRUCTIONS TO VISIBILITY.

* THESE REPORTS ARE NOT UNDER NWS QUALITY CONTROL AND MAY NOT
  REPORT WEATHER SUCH AS PRECIPITATION AND FOG.


TNZ005>011-023>034-057-059-062>066-078-080-171300
...NORTHERN MIDDLE TENNESSEE...

CITY           SKY/WX    TMP DP  RH WIND       PRES   REMARKS
CLARKSVILLE    CLOUDY    41  32  70 SE5       30.21R
CROSSVILLE     CLOUDY    35  29  78 CALM      30.18S
GALLATIN       CLOUDY    41  36  81 CALM      30.27R
DICKSON          N/A     40  33  76 CALM      30.20R
NASHVILLE      LGT RAIN  40  34  79 CALM      30.25R
PORTLAND       CLOUDY    43  30  61 SW6       30.23R
SMYRNA         LGT RAIN  39  34  82 CALM      30.27R
SPARTA         CLOUDY    39  34  81 CALM      30.20R
SPRINGFIELD    CLOUDY    41  32  70 SE5       30.20R
WEST NASHVILLE CLOUDY    41  34  75 CALM      30.22R
$$
TNZ056-058-060-061-075>077-079-093>097-171300
...SOUTHERN MIDDLE TENNESSEE...

CITY           SKY/WX    TMP DP  RH WIND       PRES   REMARKS
COLUMBIA       MOCLDY    39  36  87 CALM      30.24R
FAYETTEVILLE   CLOUDY    43  32  65 CALM      30.22R
MCMINNVILLE    CLOUDY    39  30  70 NW3       30.22R
MURFREESBORO   CLOUDY    39  30  70 W3        30.22R
PULASKI        CLOUDY    39  36  87 CALM      30.26R
SHELBYVILLE    CLOUDY    41  34  75 N5        30.24R
TULLAHOMA      MOCLDY    39  32  75 N5        30.20R
WINCHESTER     CLOUDY    43  28  56 E7        30.21R
$$


...KEY TO REMARKS...
VSB - VISIBILITY IN MILES
WCI - WIND CHILL INDEX
HX  - HEAT INDEX





USA.gov is the U.S. government's official web portal to all federal, state and local government web resources and services.